sat.trackr.live / text

‹ back to catalog

STARLINK-4636

NORAD 53731 · 2022-107AH

PAYLOAD ACTIVE UNKNOWN

§ Identity

Operator
Country
US
Launch date
2022-09-05
Launch site
AFETR
Launch vehicle
Mass (kg)
RCS (m²)

Purposes: comms

External: N2YO · Heavens-Above · Gunter

§ Orbital elements

Epoch: 2026-09-19T22:35:23.580096Z

Period
94.70 min
Inclination
53.2138°
Eccentricity
0.0004177
Mean motion
15.20651888 rev/d
Perigee alt
501.0 km
Apogee alt
506.7 km
Semi-major
6,882.0 km
B*
4.0457e-4
RAAN
91.2541°
Arg perigee
47.7921°
Mean anomaly
312.3430°
Rev number
22,406

§ Raw data

STARLINK-46361 53731U 22107AH  26262.94124514  .00008678  00000+0  40457-3 0  99902 53731  53.2138  91.2541 0004177  47.7921 312.3430 15.20651888224068

JSON: /api/v1/satellites/53731 · /tle

For live sub-satellite position, see the globe view (requires WebGL).

§ Visibility from observer

Set your observer location to see the next 7 days of passes ≥ 10°. The values pass through the URL so the page stays shareable.

No JS? Fill the form by hand. The geolocation button needs JavaScript.